This is the latest recevied weather packets stored in our database for station/object K6CED. If no packets are shown the sender has not sent any weather packets the latest 10 day(s).
| Time | Temp. | Humidity | Pressure | Rain* | Wind** | Luminosity | Snow |
|---|---|---|---|---|---|---|---|
| 1777584543 | 22.78° C | 55% | 1013.2 hPa | 0 mm | - | 776 W/m² | - |
| 1777584239 | 23.33° C | 54% | 1013.3 hPa | 0 mm | - | 785 W/m² | - |
| 1777583939 | 23.33° C | 54% | 1013.3 hPa | 0 mm | - | 797 W/m² | - |
| 1777583635 | 22.78° C | 55% | 1013.2 hPa | 0 mm | - | 808 W/m² | - |
| 1777583333 | 22.78° C | 54% | 1013.4 hPa | 0 mm | - | 816 W/m² | - |
| 1777583029 | 22.78° C | 54% | 1013 hPa | 0 mm | - | 826 W/m² | - |
| 1777582726 | 23.33° C | 53% | 1013.1 hPa | 0 mm | - | 833 W/m² | - |
| 1777582421 | 23.33° C | 53% | 1013.3 hPa | 0 mm | - | 842 W/m² | - |
| 1777582115 | 23.33° C | 54% | 1013.2 hPa | 0 mm | - | 850 W/m² | - |
| 1777581809 | 22.22° C | 55% | 1013.3 hPa | 0 mm | - | 848 W/m² | - |
| 1777581508 | 23.33° C | 52% | 1013.2 hPa | 0 mm | - | 859 W/m² | - |
| 1777581203 | 23.89° C | 52% | 1013.1 hPa | 0 mm | - | 863 W/m² | - |
| 1777580898 | 23.33° C | 52% | 1013.3 hPa | 0 mm | - | 867 W/m² | - |
| 1777580598 | 22.78° C | 51% | 1013.2 hPa | 0 mm | - | 872 W/m² | - |
| 1777580294 | 23.89° C | 49% | 1013.3 hPa | 0 mm | - | 879 W/m² | - |
| 1777579991 | 23.89° C | 48% | 1013.4 hPa | 0 mm | - | 882 W/m² | - |
| 1777579686 | 23.33° C | 48% | 1013.3 hPa | 0 mm | - | 889 W/m² | - |
| 1777579385 | 22.78° C | 49% | 1013.3 hPa | 0 mm | - | 890 W/m² | - |
| 1777579081 | 22.78° C | 49% | 1013.4 hPa | 0 mm | - | 893 W/m² | - |
| 1777578776 | 22.78° C | 50% | 1013.3 hPa | 0 mm | - | 893 W/m² | - |
| 1777578476 | 23.33° C | 48% | 1013.4 hPa | 0 mm | - | 871 W/m² | - |
| 1777578171 | 22.78° C | 49% | 1013.5 hPa | 0 mm | - | 899 W/m² | - |
| 1777577861 | 22.78° C | 48% | 1013.5 hPa | 0 mm | - | 893 W/m² | - |
| 1777577557 | 22.78° C | 49% | 1013.7 hPa | 0 mm | - | 894 W/m² | - |
| 1777577254 | 22.22° C | 49% | 1013.7 hPa | 0 mm | - | 896 W/m² | - |
* Rain latest hour (hover to see other rain measurements)
** Current wind speed in m/s (hover to see current wind gust speed)